Location: Ubon
(15.2330°N, 104.8630°E)
Time: 12:01:07
(UTC+07:00)

ISS - Visible Passes

Search period start: 16 November 2018 00:00
Search period end: 26 November 2018 00:00
Orbit: 402 x 408 km, 51.6° (Epoch: 16 November)

Date Brightness Start Highest point End Pass type
(mag) Time Alt. Az. Time Alt. Az. Time Alt. Az.
16 Nov -1.3 05:30:36 10° N 05:32:55 18° NE 05:35:14 10° E visible
17 Nov -0.6 19:30:58 10° SW 19:31:22 13° SW 19:31:22 13° SW visible
18 Nov -3.5 05:22:00 10° NNW 05:25:15 66° NE 05:28:29 10° SE visible
18 Nov -3.5 18:39:01 10° SSW 18:42:07 46° SE 18:42:07 46° SE visible
19 Nov -1.9 04:32:31 23° NNE 04:33:10 24° NE 04:35:54 10° ESE visible
19 Nov -0.8 19:24:22 10° W 19:25:32 14° WNW 19:25:32 14° WNW visible
20 Nov -2.7 05:15:57 20° W 05:17:25 28° SW 05:20:16 10° S visible
20 Nov -2.6 18:31:16 10° WSW 18:34:20 38° NW 18:36:11 19° N visible
21 Nov -2.4 04:26:40 34° SSE 04:26:40 34° SSE 04:28:39 10° SE visible
22 Nov -1.0 18:25:18 10° WNW 18:26:37 12° NW 18:27:53 10° NNW visible
